Regional Weather Roundup
Issued by NWS

Home | Current Version | Previous Version | Text Only | Print | Product List | Glossary On
Versions: 1 2 3 4 5 6 7 8 9 10 11 12 13 14 15 16 17 18 19 20 21 22 23 24 25 26 27 28 29 30 31 32 33 34 35 36 37 38 39 40 41 42 43 44 45 46 47 48 49 50
000
ASUS46 KSTO 291615
RWRCA

NORTHERN AND CENTRAL CA REGIONAL WEATHER ROUNDUP
NATIONAL WEATHER SERVICE SACRAMENTO CA
900 AM PDT WED MAR 29 2017

NOTE: FAIR INDICATES FEW OR NO CLOUDS BELOW 12,000 FEET WITH NO
SIGNIFICANT WEATHER AND/OR OBSTRUCTIONS TO VISIBILITY.

CAZ001-003-291700-
NORTHWEST AREA

CITY           SKY/WX    TMP DP  RH WIND       PRES   REMARKS
CRESCENT CITY  PTSUNNY   53  48  83 S15       30.21F
UKIAH          PTSUNNY   52  43  71 NW3       30.22R
$$

CAZ006-505>513-291700-
BAY AREA

CITY           SKY/WX    TMP DP  RH WIND       PRES   REMARKS
SANTA ROSA     MOSUNNY   53  44  71 W6        30.18R
SAN RAFAEL     N/A       52  MM  MM MISG
NAPA           SUNNY     57  46  66 CALM      30.18S
CONCORD        SUNNY     59  47  64 S6        30.18S
OAKLAND CITY   N/A      MM  MM  MM MISG
OAKLAND        MOSUNNY   59  52  77 SE5       30.19S
SAN FRAN CITY  N/A       57  MM  70 MISG
SAN FRAN ARPT  MOSUNNY   59  47  64 CALM      30.19R
LIVERMORE      SUNNY     54  46  74 CALM      30.19R
HAYWARD        MOSUNNY   59  48  67 SE5       30.18F
REDWOOD CITY   N/A       57  MM  73 MISG
MOFFETT ARPT   SUNNY     59  50  72 CALM      30.20R
SAN JOSE ARPT  MOSUNNY   57  49  74 CALM      30.20R
$$
CAZ034-037-514>518-291700-
CENTRAL COAST

CITY           SKY/WX    TMP DP  RH WIND       PRES   REMARKS
WATSONVILLE    SUNNY     54  49  83 S3        30.20R
SALINAS        SUNNY     53  48  83 E3        30.19R
MONTEREY       SUNNY     56  50  80 CALM      30.19R
SAN LUIS OBISP SUNNY     68  46  45 NW12      30.11R
SANTA MARIA    SUNNY     63  49  60 NW9       30.09S
$$
CAZ015-016-291700-
NORTHERN SACRAMENTO VALLEY

CITY           SKY/WX    TMP DP  RH WIND       PRES   REMARKS
REDDING        CLOUDY    58  44  60 N5        30.14F
RED BLUFF      CLOUDY    60  43  53 N5        30.16R
OROVILLE       SUNNY     59  44  57 SE5       30.18R
$$
CAZ016>018-291700-
SOUTHERN SACRAMENTO VALLEY

CITY           SKY/WX    TMP DP  RH WIND       PRES   REMARKS
AUBURN         SUNNY     55  39  54 CALM      30.18S
BEALE AFB      SUNNY     58  46  66 S3        30.16R
LINCOLN        FAIR      55  45  67 CALM      30.16F
MARYSVILLE     SUNNY     56  46  69 CALM      30.18R
SAC INTL ARPT  MOSUNNY   56  49  77 S3        30.16S
MATHER AIRPORT SUNNY     55  48  76 SE5       30.17R
DOWNTOWN SAC   N/A       55  MM  MM MISG
SAC EXEC ARPT  SUNNY     55  49  80 CALM      30.17S
VACAVILLE      SUNNY     61  49  64 E3        30.17F
TRAVIS AFB     SUNNY     57  50  77 CALM      30.15S
$$
CAZ019>021-291700-
SAN JOAQUIN VALLEY

CITY           SKY/WX    TMP DP  RH WIND       PRES   REMARKS
STOCKTON       SUNNY     57  51  80 SE3       30.18R
MODESTO        SUNNY     56  50  80 CALM      30.18R
MERCED         SUNNY     55  50  83 SE3       30.17S
LEMOORE        MOSUNNY   54  44  69 CALM      30.19S
FRESNO         MOSUNNY   56  49  77 SE7       30.19S
HANFORD        SUNNY     52  48  86 VRB3      30.20R
PORTERVILLE    SUNNY     56  47  71 CALM      30.21R
BAKERSFIELD    SUNNY     60  42  51 SE3       30.18R
$$
CAZ011-012-071-291700-
NORTHERN MOUNTAINS

CITY           SKY/WX    TMP DP  RH WIND       PRES   REMARKS
YREKA          PTSUNNY   48  42  80 S6        30.19F
MOUNT SHASTA   PTSUNNY   46  38  73 CALM      30.19F
ALTURAS        PTSUNNY   40  34  79 E3        30.22S
$$
CAZ011-012-071-291700-
SIERRA NEVADA MTNS

CITY           SKY/WX    TMP DP  RH WIND       PRES   REMARKS
BLUE CANYON    SUNNY     57  27  31 NW3       30.26R
TAHOE VLY ARPT SUNNY     36  28  73 S3        30.29F
MAMMOTH LAKES  FAIR      39  26  58 CALM      30.30S
$$



USA.gov is the U.S. government's official web portal to all federal, state and local government web resources and services.